Location: Hradec Kralove
(50.2170°N, 15.8330°E)
Time: 02:22:47
(UTC+02:00)

ISS - Visible Passes

Search period start: 21 September 2019 00:00
Search period end: 01 October 2019 00:00
Orbit: 411 x 421 km, 51.6° (Epoch: 21 September)

Date Brightness Start Highest point End Pass type
(mag) Time Alt. Az. Time Alt. Az. Time Alt. Az.
21 Sep -3.3 20:37:07 10° SW 20:40:15 41° SSE 20:40:15 41° SSE visible
22 Sep -2.7 19:49:00 10° SSW 19:51:55 28° SSE 19:54:01 15° E visible
22 Sep -2.1 21:25:06 10° WSW 21:26:56 30° WSW 21:26:56 30° WSW visible
23 Sep -3.9 20:36:39 10° WSW 20:39:58 75° SSE 20:40:33 56° E visible
24 Sep -3.6 19:48:16 10° SW 19:51:32 55° SSE 19:54:04 15° E visible
24 Sep -2.1 21:24:57 10° W 21:26:58 33° W 21:26:58 33° W visible
25 Sep -3.7 20:36:26 10° W 20:39:45 75° N 20:40:24 53° ENE visible
26 Sep -3.8 19:47:54 10° WSW 19:51:14 89° NNW 19:53:46 16° ENE visible
26 Sep -1.9 21:24:46 10° W 21:26:39 30° WNW 21:26:39 30° WNW visible
27 Sep -3.6 20:36:14 10° W 20:39:33 66° N 20:39:58 57° NE visible
28 Sep -3.6 19:47:39 10° W 19:50:59 69° N 19:53:16 19° ENE visible
28 Sep -1.6 21:24:31 10° WNW 21:26:09 27° WNW 21:26:09 27° WNW visible
29 Sep -3.8 20:35:58 10° WNW 20:39:18 74° N 20:39:25 72° NE visible
30 Sep -3.6 19:47:24 10° W 19:50:43 67° N 19:52:41 22° E visible
30 Sep -1.4 21:24:11 10° WNW 21:25:34 22° W 21:25:34 22° W visible
